Regional Weather Roundup
Issued by NWS

Home | Current Version | Previous Version | Text Only | Print | Product List | Glossary On
Versions: 1 2 3 4 5 6 7 8 9 10 11 12 13 14 15 16 17 18 19 20 21 22 23 24 25 26 27 28 29 30 31 32 33 34 35 36 37 38 39 40 41 42 43 44 45 46 47 48 49 50
000
ASUS42 KFFC 272010
RWRGA
WEATHER ROUNDUP FOR GEORGIA
NATIONAL WEATHER SERVICE PEACHTREE CITY GA
300 PM EST MON FEB 27 2017

NOTE: "FAIR" INDICATES FEW OR NO CLOUDS BELOW 12,000 FEET WITH NO
SIGNIFICANT WEATHER AND/OR OBSTRUCTIONS TO VISIBILITY.

* = USE WITH CAUTION. THE STATIONS MARKED WITH AN ASTERISK MAY NOT
REPORT WEATHER SUCH AS PRECIPITATION, FOG, OR THUNDER AND ARE NOT
QUALITY CONTROLLED BY NWS.

THE REMARK "TC" DENOTES TEMPERATURE READING IN DEGREES CELSIUS.

GAZ001>058-272100-
NORTH GEORGIA

CITY           SKY/WX    TMP DP  RH WIND       PRES   REMARKS
ATLANTA        LGT RAIN  50  41  71 SE13      30.29F
ATHENS         CLOUDY    60  38  43 NW5       30.33F
CHAMBLEE       LGT RAIN  48  40  73 E10       30.24F
PEACHTREE CITY LGT RAIN  50  46  86 E6        30.32F FOG
ROME           MOSUNNY   53  41  63 S7        30.25F
WEST ATLANTA   LGT RAIN  50  39  66 SE9G25    30.22F
GAINESVILLE    LGT RAIN  50  40  68 E8        30.29F
CARTERSVILLE   CLOUDY    50  42  74 E5        30.25S


CITY           SKY/WX    TMP DP  RH WIND       PRES   REMARKS
DALTON*        CLOUDY    54  43  66 SE10G16   30.24F
MARIETTA       CLOUDY    49  40  70 SE7G20    30.25F
KENNESAW*      CLOUDY    48  37  66 E9        30.29F
CANTON*        CLOUDY    50  34  53 E3        30.28R
$$

GAZ059>098-102>109-272100-
CENTRAL GEORGIA

CITY           SKY/WX    TMP DP  RH WIND       PRES   REMARKS
AUGUSTA-BUSH   PTSUNNY   73  48  41 SE12      30.29F
AUGUSTA-DANIEL MOSUNNY   70  45  40 E7        30.30F
COLUMBUS       CLOUDY    61  42  49 N15G23    30.27R
MACON          MOSUNNY   69  49  48 NE8       30.26F
ROBINS AFB     MOSUNNY   70  50  48 E6        30.25F


CITY           SKY/WX    TMP DP  RH WIND       PRES   REMARKS
LAGRANGE*      LGT RAIN  50  49  97 SE5       30.31S
SYLVANIA*      MOSUNNY  N/A N/A N/A SE9       30.27F
MILLEDGEVILLE* MOSUNNY   68  52  56 NW5       30.28S
$$

GAZ099>101-110>166-272100-
SOUTH GEORGIA

CITY           SKY/WX    TMP DP  RH WIND       PRES   REMARKS
SAVANNAH       PTSUNNY   76  55  48 S16       30.28S
VALDOSTA       PTSUNNY   79  59  50 VRB3      30.20F
ALMA             N/A     78  55  44 SE12      30.21F
ST SIMONS      LGT RAIN  70  61  73 E9        30.25F
FT STEWART     CLOUDY    72  57  57 E14       30.23F
ALBANY         PTSUNNY   77  57  50 S14G20    30.21F
HUNTER AFB     MOSUNNY   73  61  65 SE6       30.25F
MOODY AFB      PTSUNNY   80  56  44 S9G17     30.19F
BRUNSWICK      CLOUDY    72  63  73 SE8       30.26S


CITY           SKY/WX    TMP DP  RH WIND       PRES   REMARKS
BAINBRIDGE*    PTSUNNY   77  61  57 SW16      30.19F
MOULTRIE*      PTSUNNY   77  59  53 S8        30.20F
VIDALIA*       CLOUDY    77  57  50 SE6       30.24S
WAYCROSS*      PTSUNNY   81  61  50 S6        30.22F
DOUGLAS*       CLOUDY    77  52  41 SW3       30.23S
$$



USA.gov is the U.S. government's official web portal to all federal, state and local government web resources and services.